Aérodrome :
LOGIN :

S'inscrire | Disclaimer

   EN    FR    IT 

 










Légende :    VFR   VFR Marginal   IFR   IFR Intensif   IFR Très Intensif
Visi : 
Plafond : 
>= 8 km
>= 3000ft
5 à 8 km
1000 à 3000 ft
1500m à 5 km
500 à 1000 ft
800 à 1500m
200 à 500 ft
< 800m
< 200 ft
Symboles :   Orages  Brouillard  Fortes neiges  Fortes précipitations  Vent > 20 kt
SIGMETs :   Divers  Orages  Givrage  Turbulence  Onde Orograph.  Cendres Volcan.







- Altitude de l'aérodrome : 388 ft
- Code IATA : QYR
- Voir les cartes d'approche


LFQB - Troyes Barberey

DERNIER METAR :
  • 142130Z AUTO 16012KT 9999 OVC005 08/07 Q1024

METARs EXPIRÉS :
  • 142100Z AUTO 14009KT 9999 FEW006 08/07 Q1024
  • 142030Z AUTO 14009KT CAVOK 09/07 Q1024
  • 142000Z AUTO 14006KT CAVOK 09/08 Q1024
  • 141930Z AUTO 13007KT CAVOK 10/09 Q1024
  • 141900Z AUTO 12004KT CAVOK 09/09 Q1025

TAF N/A
Pas de NOTAMs connus pour ce terrain.



MET'MAP, la Météo Aéronautique d'un coup d'oeil ! - Copyright ORBIFLY Décembre 2007 - Disclaimer

ORBIFLY MET'MAP TEAM :

Programmation & Développement : Alexandra Zaïnal
Conception & Développement : Baudouin d'Aumeries
Co-Programmation & Développement : Marc-Olivier Méhu
Soutien technique & logistique : Manuel Goepfert

Contact : metmap@orbifly.com




SOURCES & CREDITS :

   NOAA